Вернуться в каталог

DRAGON FREEDOM 3

АктивенНаукаVLEO
NORAD 67796·PAYLOAD·🇺🇸 United States

Запущен Feb 13, 2026 с Cape Canaveral Space Force Station

Loading…

Ближайшие Пролёты (ближайшие 24 часа)

TLE

СвежийSource: Space-Track

Эпоха: Sep 14, 2026, 20:28 UTC

1 67796U 26031A   26257.85283187  .00006182  00000-0  11980-3 0  9990
2 67796  51.6309 216.3169 0004923 141.7352 218.3986 15.49117649586621

Отслеживайте DRAGON FREEDOM 3 в реальном времени с AllMySat

Download on the App Store